Home > Weather > Rainy River > Past weeks

Flag for Canada Past Weather in Rainy River, Ontario, Canada — Yesterday and Last 2 Weeks

Now
74 °F

Mostly cloudy.


Feels Like: 74 °F
Forecast: 64 / 76 °F
Wind: 9 mph from South

Location: Baudette International Airport

Current Time: Jul 23, 2016 at 11:57:10 PM

Latest Report: Jul 23, 2016 at 10:53 PM


Visibility: 10 mi

Pressure: 29.69 "Hg

Humidity: 82%

Dew Point: 68 °F

Location of Rainy RiverLocation

Past Weather in Rainy River — Graph

°F

Rainy River Temperature Yesterday

Maximum temperature yesterday: 85 °F (at 2:53 PM)
Minimum temperature yesterday: 62 °F (at 1:53 AM)
Average temperature yesterday: 74 °F

High & Low Weather Summary for the Past Weeks

 TemperatureHumidityPressure
High90 °F (Jul 20, 2:53 PM)100% (Jul 9, 5:53 AM)30.20 "Hg (Jul 9, 5:53 AM)
Low50 °F (Jul 16, 5:53 AM)40% (Jul 22, 12:53 PM)29.38 "Hg (Jul 13, 1:53 AM)
Average68 °F74%29.86 "Hg
* Reported Jul 8 10:53 PM — Jul 23 10:53 PM, Rainy River, Weather by CustomWeather, © 2016

Note: Actual official high and low records may vary slightly from our data, if they occured in-between our weather recording intervals... More about our weather records

Advertising

Rainy River Weather History for the Previous 24 Hours

Scroll right to see more
 ConditionsComfort  
Time TempWeatherWind HumidityBarometerVisibility
10:53 PM
Sat, Jul 23
74 °FMostly cloudy.9 mph82%29.69 "Hg10 mi
9:53 PM74 °FMostly cloudy.5 mph85%29.70 "Hg10 mi
8:53 PM75 °FMore clouds than sun.5 mph82%29.70 "Hg10 mi
7:53 PM77 °FSunny.5 mph77%29.70 "Hg10 mi
6:53 PM76 °FSunny.6 mph85%29.71 "Hg10 mi
5:53 PM76 °FPartly sunny.6 mph82%29.74 "Hg10 mi
4:53 PM73 °FLight rain. Partly sunny.8 mph90%29.76 "Hg9 mi
3:53 PM73 °FLight rain. More clouds than sun.6 mph81%29.82 "Hg10 mi
2:53 PM76 °FSunny.10 mph67%29.81 "Hg10 mi
1:53 PM76 °FSunny.9 mph67%29.85 "Hg10 mi
12:53 PM77 °FSunny.8 mph62%29.85 "Hg10 mi
11:53 AM75 °FSunny.8 mph66%29.83 "Hg10 mi
10:53 AM70 °FScattered clouds.9 mph76%29.86 "Hg10 mi
9:53 AM67 °FPassing clouds.No wind81%29.93 "Hg10 mi
8:53 AM67 °FSunny.10 mph79%29.90 "Hg10 mi
7:53 AM66 °FSunny.13 mph84%29.90 "Hg10 mi
6:53 AM64 °FSunny.7 mph87%29.94 "Hg10 mi
5:53 AM62 °FClear.6 mph93%29.95 "Hg10 mi
4:53 AM61 °FClear.No wind97%29.98 "Hg10 mi
3:53 AM61 °FClear.No wind93%29.99 "Hg10 mi
2:53 AM62 °FClear.3 mph90%29.99 "Hg10 mi
1:53 AM62 °FClear.No wind90%30.00 "Hg10 mi
12:53 AM61 °FClear.5 mph93%30.01 "Hg10 mi
11:53 PM
Fri, Jul 22
64 °FClear.3 mph90%30.01 "Hg10 mi
Weather by CustomWeather, © 2016

See weather overviewHow to use our weather pages